[[{"header":{"parameterUnit":"m.s-1","parameterCategory":1,"la1":30.2991,"la2":30.254,"lo1":-89.0895,"lo2":-89.0444,"dy":0.0017,"dx":0.0017,"nx":28,"ny":28,"refTime":"2024-02-22T03:00:00:Z","depth":0,"parameterNumber":2,"parameterNumberName":"U-component_of_WINDS"},"data":[0,0,0,0,0,0,0,0,0,0,0,0,0,0,0,0,0,0,0,0,0,0,0,0,0,0,0,0,0,0,0,0,0,0,0,0,0,0,0,0,0,0,0,0,0,0,0,0,0,0,0,0,0,0,0,0,0,0,-1.0631,-1.0632,0,-1.0714,-1.0715,-1.0716,-1.0747,-1.0747,-1.0747,-1.0747,-1.0833,-1.0835,-1.0838,0,0,0,0,0,0,0,0,0,0,0,0,0,-1.0501,-1.0503,-1.0631,-1.0632,-1.0633,-1.0714,-1.0715,-1.0716,-1.0747,-1.0747,-1.0747,-1.0747,-1.0832,-1.0835,-1.0838,0,0,0,0,0,0,0,0,0,0,0,0,0,-1.0568,-1.0504,-1.0631,-1.0658,-1.0662,-1.0714,-1.0715,-1.0717,-1.0748,-1.0747,-1.0747,-1.0746,-1.0831,-1.0835,-1.0839,-1.087,0,0,-1.085,-1.0852,0,0,0,0,0,0,0,0,-1.0564,-1.0573,-1.0653,-1.0657,-1.066,-1.072,-1.0701,-1.0768,-1.0748,-1.0715,-1.0747,-1.0746,-1.0796,-1.0803,-1.0819,-1.0874,-1.0878,-1.0851,-1.0853,-1.0855,-1.0856,0,0,0,0,0,0,0,-1.056,-1.0569,-1.0664,-1.0654,-1.0659,-1.0667,-1.0676,-1.0714,-1.0757,-1.0718,-1.072,-1.073,-1.0798,-1.0815,-1.0821,-1.0879,-1.0851,-1.0854,-1.0856,-1.0858,-1.0964,-1.0965,0,0,0,0,0,0,-1.055,-1.0565,-1.0661,-1.0667,-1.061,-1.067,-1.068,-1.0701,-1.0756,-1.0764,-1.073,-1.0731,-1.0809,-1.0817,-1.0824,-1.0865,-1.0855,-1.0858,-1.086,-1.0964,-1.0965,-1.0965,0,0,0,0,0,0,-1.0547,-1.0558,-1.0658,-1.0617,-1.063,-1.0672,-1.0696,-1.0703,-1.0721,-1.0765,-1.0773,-1.074,-1.0809,-1.0819,-1.0858,-1.0868,-1.086,-1.0863,-1.0963,-1.0964,-1.0965,-1.0946,0,0,0,0,0,0,-1.0543,-1.0557,-1.0569,-1.0617,-1.0632,-1.069,-1.0697,-1.0705,-1.0727,-1.0729,-1.0777,-1.0784,-1.0809,-1.0853,-1.0862,-1.0873,-1.0866,-1.0963,-1.0964,-1.0965,-1.0945,-1.0946,-1.0946,0,0,0,0,0,-1.0539,-1.0561,-1.0569,-1.0581,-1.0648,-1.0691,-1.0699,-1.0727,-1.0728,-1.074,-1.0769,-1.0783,-1.0866,-1.0856,-1.0867,-1.088,-1.0962,-1.0963,-1.0965,-1.0945,-1.0946,-1.0946,0,0,0,0,0,0,-1.0513,-1.0567,-1.0578,-1.0616,-1.0648,-1.0696,-1.0712,-1.0727,-1.076,-1.0761,-1.0794,-1.0805,-1.0842,-1.0865,-1.0853,-1.0913,-1.0915,-1.0918,-1.0897,-1.0897,-1.0897,-1.0891,-1.0869,0,0,0,0,0,-1.0512,-1.0542,-1.0588,-1.0617,-1.0632,-1.0669,-1.0689,-1.0708,-1.0743,-1.0757,-1.0789,-1.0823,-1.0857,-1.0878,-1.0912,-1.0949,-1.096,-1.0963,-1.0963,-1.0963,-1.0966,-1.0988,-1.0989,-1.0969,-1.0969,-1.0969,0,0,-1.051,-1.0543,-1.056,-1.0612,-1.064,-1.067,-1.0681,-1.0713,-1.0736,-1.0762,-1.0801,-1.0826,-1.0866,-1.0905,-1.0923,-1.0925,-1.0974,-1.0965,-1.0964,-1.0967,-1.0989,-1.0991,-1.0993,-1.097,-1.097,-1.097,0,0,-1.0521,-1.055,-1.0577,-1.0604,-1.0645,-1.067,-1.0676,-1.0722,-1.0739,-1.0779,-1.0799,-1.0828,-1.0885,-1.0913,-1.0935,-1.0958,-1.0972,-1.0968,-1.0968,-1.0989,-1.099,-1.0992,-1.1,-1.1002,-1.097,-1.097,-1.097,0,-1.0514,-1.056,-1.0589,-1.062,-1.0642,-1.0668,-1.0696,-1.0721,-1.0771,-1.0787,-1.0788,-1.0861,-1.089,-1.0935,-1.0941,-1.0958,-1.0967,-1.0962,-1.0988,-1.099,-1.0991,-1.0999,-1.1002,-1.0969,-1.0969,-1.0969,-1.097,0,-1.0548,-1.058,-1.0597,-1.0645,-1.0669,-1.0699,-1.0733,-1.0755,-1.0771,-1.0796,-1.0836,-1.0872,-1.0913,-1.0926,-1.0942,-1.0974,-1.0974,-1.0981,-1.0983,-1.0992,-1.1,-1.1004,-1.0968,-1.0968,-1.0969,-1.0969,0,0,-1.0546,-1.0609,-1.0615,-1.0637,-1.0684,-1.071,-1.0741,-1.078,-1.0798,-1.0833,-1.0859,-1.0908,-1.0915,-1.0939,-1.096,-1.0978,-1.0994,-1.0984,-1.0985,-1.0984,-1.1031,-1.1024,-1.1027,-1.1004,-1.1004,-1.1005,-1.1027,0,-1.0563,-1.0618,-1.0646,-1.0689,-1.0719,-1.0744,-1.0771,-1.0803,-1.0827,-1.0857,-1.0884,-1.0917,-1.0924,-1.0939,-1.0959,-1.0988,-1.1004,-1.0987,-1.1029,-1.103,-1.1018,-1.1032,-1.1025,-1.1044,-1.103,-1.1031,-1.1031,0,-1.0591,-1.0624,-1.0671,-1.0715,-1.0728,-1.0752,-1.0791,-1.0819,-1.0856,-1.0873,-1.09,-1.092,-1.0954,-1.0954,-1.1002,-1.0989,-1.1009,-1.1026,-1.1027,-1.1032,-1.1031,-1.1036,-1.1051,-1.1053,-1.1037,-1.1036,-1.1036,0,-1.0584,-1.0641,-1.0676,-1.0694,-1.0746,-1.0762,-1.0785,-1.0822,-1.0845,-1.0879,-1.0894,-1.0932,-1.0953,-1.0982,-1.1012,-1.101,-1.1057,-1.1059,-1.1072,-1.1071,-1.108,-1.1079,-1.1097,-1.1093,-1.1093,-1.1093,-1.1093,0,-1.0601,-1.0628,-1.0673,-1.0695,-1.0726,-1.0758,-1.0789,-1.0813,-1.0846,-1.0874,-1.0898,-1.0923,-1.0961,-1.0991,-1.1015,-1.1051,-1.106,-1.1075,-1.1081,-1.1072,-1.107,-1.1085,-1.1084,-1.1094,-1.1093,-1.1093,-1.1093,0,-1.0598,-1.0629,-1.0669,-1.0716,-1.0728,-1.0749,-1.0789,-1.0812,-1.0837,-1.0871,-1.0881,-1.0921,-1.0958,-1.0991,-1.104,-1.1056,-1.1092,-1.11,-1.1079,-1.1082,-1.1092,-1.1091,-1.1121,-1.1126,-1.1118,-1.1118,-1.1118,0,-1.0606,-1.0628,-1.0676,-1.0696,-1.0718,-1.075,-1.0773,-1.0805,-1.0828,-1.0873,-1.0889,-1.0928,-1.096,-1.1018,-1.1052,-1.109,-1.1098,-1.1106,-1.1104,-1.1095,-1.1098,-1.1096,-1.1099,-1.1106,-1.1106,-1.1105,-1.1105,0,-1.0618,-1.0632,-1.0664,-1.0701,-1.0727,-1.0758,-1.079,-1.0805,-1.0844,-1.0868,-1.0906,-1.0931,-1.0981,-1.1019,-1.1061,-1.1085,-1.1102,-1.1106,-1.1111,-1.1102,-1.1089,-1.1096,-1.1078,-1.1105,-1.1105,-1.1105,-1.1105,-1.1105,-1.0621,-1.0641,-1.0678,-1.0713,-1.074,-1.0769,-1.0792,-1.0821,-1.0852,-1.0895,-1.0912,-1.0951,-1.0988,-1.1046,-1.107,-1.1101,-1.1104,-1.1111,-1.1113,-1.1114,-1.1112,-1.1084,-1.1109,-1.1109,-1.1109,-1.1109,-1.1109,0,-1.0633,-1.0658,-1.069,-1.0733,-1.076,-1.0774,-1.081,-1.0832,-1.0865,-1.0898,-1.093,-1.0973,-1.101,-1.1047,-1.1086,-1.1104,-1.1113,-1.1113,-1.1112,-1.1117,-1.1107,-1.1099,-1.1105,-1.1105,-1.1105,-1.1105,-1.1105,-1.1105,-1.0643,-1.0677,-1.0696,-1.0745,-1.0771,-1.0808,-1.0827,-1.0855,-1.0882,-1.0929,-1.0959,-1.0983,-1.1018,-1.106,-1.1095,-1.1105,-1.1118,-1.1116,-1.1128,-1.1118,-1.1118,-1.1118,-1.111,-1.1119,-1.1119,-1.1136,-1.1136,-1.1136]},{"header":{"parameterUnit":"m.s-1","parameterCategory":1,"la1":30.2991,"la2":30.254,"lo1":-89.0895,"lo2":-89.0444,"dy":0.0017,"dx":0.0017,"nx":28,"ny":28,"refTime":"2024-02-22T03:00:00:Z","depth":0,"parameterNumber":3,"parameterNumberName":"V-component_of_WINDS"},"data":[0,0,0,0,0,0,0,0,0,0,0,0,0,0,0,0,0,0,0,0,0,0,0,0,0,0,0,0,0,0,0,0,0,0,0,0,0,0,0,0,0,0,0,0,0,0,0,0,0,0,0,0,0,0,0,0,0,0,3.1481,3.1482,0,3.1516,3.1516,3.1516,3.1467,3.1465,3.1463,3.1462,3.1499,3.1501,3.1504,0,0,0,0,0,0,0,0,0,0,0,0,0,3.1377,3.1379,3.1481,3.1482,3.1482,3.1515,3.1516,3.1516,3.1467,3.1465,3.1463,3.1461,3.1498,3.1501,3.1504,0,0,0,0,0,0,0,0,0,0,0,0,0,3.1418,3.138,3.1481,3.1462,3.146,3.1515,3.1516,3.1517,3.1468,3.1465,3.1462,3.146,3.1497,3.1501,3.1505,3.1581,0,0,3.1517,3.1518,0,0,0,0,0,0,0,0,3.1416,3.1422,3.1464,3.1463,3.1462,3.1484,3.1493,3.1538,3.1468,3.1465,3.1462,3.1459,3.1496,3.15,3.1512,3.1583,3.1585,3.1517,3.1519,3.1521,3.1522,0,0,0,0,0,0,0,3.1413,3.142,3.1495,3.1465,3.1463,3.1452,3.1455,3.1501,3.1495,3.1465,3.1462,3.1466,3.1495,3.1509,3.1513,3.1585,3.1517,3.152,3.1523,3.1524,3.1723,3.1726,0,0,0,0,0,0,3.1412,3.1418,3.1494,3.1496,3.1432,3.1456,3.146,3.148,3.1494,3.1494,3.1468,3.1464,3.1503,3.1508,3.1514,3.1606,3.1521,3.1525,3.1527,3.172,3.1724,3.1727,0,0,0,0,0,0,3.141,3.1419,3.1492,3.1456,3.1465,3.1461,3.1484,3.1482,3.1495,3.1497,3.1496,3.1483,3.1501,3.1508,3.1565,3.1607,3.1526,3.153,3.1717,3.1721,3.1725,3.1791,0,0,0,0,0,0,3.1407,3.1419,3.1447,3.1457,3.1467,3.1543,3.1486,3.1484,3.1502,3.1496,3.151,3.151,3.15,3.156,3.1569,3.1611,3.1533,3.1713,3.1719,3.1724,3.1785,3.1797,3.1807,0,0,0,0,0,3.1404,3.1464,3.1449,3.1458,3.1502,3.1545,3.1551,3.1537,3.1505,3.1535,3.1536,3.151,3.1601,3.1566,3.1576,3.162,3.171,3.1717,3.1723,3.178,3.1795,3.1807,0,0,0,0,0,0,3.1459,3.1465,3.1448,3.1513,3.1529,3.1537,3.1573,3.1552,3.1578,3.1572,3.1554,3.1558,3.1619,3.1625,3.1586,3.1696,3.165,3.1659,3.169,3.1704,3.1715,3.1713,3.1536,0,0,0,0,0,3.1479,3.1513,3.1516,3.1574,3.1582,3.1576,3.1595,3.1583,3.1599,3.1605,3.1611,3.1628,3.166,3.1682,3.1712,3.1785,3.1789,3.182,3.1832,3.1841,3.1849,3.1891,3.1906,3.1748,3.1748,3.1748,0,0,3.1521,3.1528,3.155,3.1585,3.1596,3.1633,3.1582,3.1623,3.165,3.1612,3.1666,3.1671,3.1689,3.1755,3.1784,3.1762,3.1893,3.1849,3.1856,3.186,3.1899,3.1914,3.1927,3.1753,3.1752,3.1751,0,0,3.1615,3.1623,3.1673,3.1685,3.1702,3.1698,3.171,3.1721,3.1723,3.1777,3.1749,3.1782,3.1838,3.1853,3.1867,3.197,3.1948,3.198,3.2038,3.2079,3.2092,3.2103,3.2141,3.2155,3.1988,3.1988,3.1988,0,3.1665,3.1718,3.1701,3.1744,3.1762,3.1728,3.1779,3.1792,3.1818,3.1831,3.1805,3.1876,3.1886,3.1956,3.1981,3.1993,3.2008,3.1979,3.2091,3.2102,3.2112,3.2149,3.2163,3.1992,3.1992,3.1991,3.1991,0,3.178,3.1817,3.1855,3.1882,3.1903,3.195,3.1941,3.1965,3.1952,3.1951,3.2008,3.2018,3.2051,3.2066,3.2053,3.2136,3.2121,3.2094,3.2048,3.2131,3.2165,3.2179,3.1998,3.1996,3.1995,3.1994,0,0,3.1911,3.1927,3.1942,3.1954,3.1971,3.2001,3.2047,3.2078,3.21,3.2119,3.2159,3.2208,3.2183,3.22,3.2189,3.2224,3.2307,3.2192,3.2192,3.2215,3.2401,3.2424,3.244,3.2292,3.2295,3.2297,3.24,0,3.2007,3.2086,3.2073,3.215,3.2186,3.2155,3.2196,3.2211,3.2212,3.2243,3.2244,3.228,3.2243,3.2253,3.2287,3.229,3.2345,3.2282,3.2331,3.2333,3.2329,3.2457,3.2481,3.2578,3.2413,3.2416,3.2417,0,3.2129,3.2153,3.2234,3.2247,3.2262,3.2299,3.2328,3.2357,3.2375,3.2373,3.2393,3.2376,3.2424,3.2376,3.2443,3.2401,3.242,3.2425,3.2429,3.2434,3.2381,3.2468,3.2608,3.2624,3.2438,3.2436,3.2435,0,3.2219,3.2272,3.2328,3.2339,3.2355,3.2382,3.239,3.2405,3.2426,3.2451,3.2465,3.2495,3.2513,3.2538,3.253,3.2496,3.26,3.2551,3.2602,3.2602,3.2626,3.2625,3.2773,3.2635,3.2635,3.2635,3.2635,0,3.2329,3.238,3.2369,3.2403,3.2461,3.2445,3.2503,3.2507,3.2522,3.2558,3.2533,3.2567,3.2554,3.2588,3.2582,3.264,3.2648,3.2649,3.2647,3.2653,3.2653,3.2666,3.266,3.2639,3.2638,3.2637,3.2636,0,3.2439,3.2433,3.2493,3.2503,3.2507,3.2549,3.2559,3.2592,3.2591,3.2637,3.2648,3.2646,3.2686,3.268,3.2724,3.272,3.2793,3.2782,3.2787,3.2785,3.2837,3.2833,3.3,3.3022,3.2868,3.287,3.2871,0,3.2511,3.2549,3.2564,3.2587,3.2597,3.2633,3.2653,3.2641,3.2664,3.2688,3.2719,3.2756,3.2785,3.285,3.2854,3.2888,3.2879,3.2935,3.2884,3.2888,3.2882,3.2881,3.2886,3.2946,3.2947,3.2949,3.295,0,3.2639,3.2634,3.2664,3.2695,3.2721,3.2744,3.2765,3.2785,3.2774,3.2802,3.2841,3.2864,3.2909,3.2947,3.2979,3.2989,3.2969,3.2966,3.298,3.2986,3.2989,3.2991,3.2817,3.2962,3.2961,3.296,3.296,3.2959,3.2733,3.2767,3.2783,3.2819,3.2833,3.2854,3.2887,3.289,3.2922,3.2958,3.2948,3.2994,3.3013,3.3054,3.3068,3.3104,3.3084,3.3103,3.3109,3.3114,3.3121,3.2981,3.311,3.3109,3.3109,3.3109,3.3109,0,3.2862,3.2871,3.2904,3.2934,3.2963,3.294,3.2962,3.2988,3.3029,3.3047,3.3077,3.3124,3.3161,3.3168,3.3204,3.3232,3.3224,3.3242,3.3241,3.3244,3.3136,3.3122,3.3249,3.3249,3.3249,3.3248,3.3248,3.3248,3.2932,3.2989,3.2987,3.3052,3.306,3.3105,3.312,3.314,3.3155,3.3208,3.3239,3.3243,3.3258,3.3295,3.3329,3.333,3.3346,3.3368,3.3366,3.3265,3.3252,3.3238,3.3225,3.3371,3.3371,3.3471,3.3472,3.3473]}]]